Home > Weather > Yavatmal > Past weeks

Flag for India Past Weather in Yavatmal, Maharashtra, India — Yesterday and Last 2 Weeks

Now
77 °F

Thunderstorms. Mostly cloudy.


Feels Like: 78 °F
Forecast: 73 / 81 °F
Wind: 12 mph from West

Location: Nagpur Sonegaon

Current Time: Jul 31, 2016 at 7:24:45 AM

Latest Report: Jul 31, 2016 at 5:30 AM


Visibility: 1 mi

Pressure: 29.65 "Hg

Humidity: 89%

Dew Point: 73 °F

Location of YavatmalLocation

Past Weather in Yavatmal — Graph

°F

Yavatmal Temperature Yesterday

Maximum temperature yesterday: 88 °F (at 11:30 AM)
Minimum temperature yesterday: 79 °F (at 2:30 AM)
Average temperature yesterday: 83 °F

High & Low Weather Summary for the Past Weeks

 TemperatureHumidityPressure
High93 °F (Jul 17, 3:00 PM)100% (Jul 20, 11:30 PM)29.83 "Hg (Jul 20, 11:30 PM)
Low75 °F (Jul 19, 12:30 AM)40% (Jul 26, 1:00 PM)29.59 "Hg (Jul 21, 3:30 PM)
Average82 °F84%29.70 "Hg
* Reported Jul 16 5:30 AM — Jul 31 5:30 AM, Yavatmal, Weather by CustomWeather, © 2016

Note: Actual official high and low records may vary slightly from our data, if they occured in-between our weather recording intervals... More about our weather records

Advertising

Yavatmal Weather History for the Previous 24 Hours

Scroll right to see more
 ConditionsComfort  
Time TempWeatherWind HumidityBarometerVisibility
5:30 AM
Sun, Jul 31
77 °FThunderstorms. Mostly cloudy.12 mph89%29.65 "Hg1 mi
4:00 AM77 °FMostly cloudy.5 mph89%29.65 "Hg1 mi
3:30 AM77 °FMostly cloudy.5 mph89%29.65 "Hg1 mi
3:00 AM77 °FMostly cloudy.9 mph89%29.65 "Hg1 mi
2:00 AM82 °FPassing clouds.No wind84%29.68 "Hg1 mi
1:30 AM82 °FPassing clouds.No wind84%29.68 "Hg1 mi
1:00 AM82 °FPassing clouds.No wind84%29.68 "Hg1 mi
12:30 AM81 °FPassing clouds.No wind89%29.68 "Hg2 mi
12:00 AM82 °FPassing clouds.No wind84%29.68 "Hg2 mi
11:30 PM
Sat, Jul 30
82 °FPassing clouds.No wind84%29.71 "Hg2 mi
10:30 PM82 °FPartly cloudy.No wind84%29.71 "Hg2 mi
9:00 PM84 °FPartly cloudy.No wind79%29.68 "Hg2 mi
8:30 PM84 °FPartly cloudy.No wind79%29.68 "Hg2 mi
8:00 PM84 °FPartly cloudy.No wind84%29.68 "Hg2 mi
7:30 PM84 °FPartly cloudy.No wind79%29.65 "Hg2 mi
7:00 PM86 °FBroken clouds.No wind75%29.65 "Hg2 mi
6:00 PM86 °FBroken clouds.3 mph75%29.62 "Hg3 mi
5:30 PM88 °FBroken clouds.6 mph66%29.62 "Hg3 mi
5:00 PM86 °FBroken clouds.8 mph70%29.59 "Hg3 mi
4:30 PM88 °FBroken clouds.8 mph66%29.59 "Hg3 mi
4:00 PM88 °FPartly sunny.8 mph70%29.62 "Hg2 mi
3:30 PM84 °FBroken clouds.7 mph74%29.62 "Hg2 mi
2:30 PM82 °FBroken clouds.9 mph74%29.65 "Hg2 mi
2:00 PM82 °FThundershowers. Broken clouds.7 mph79%29.65 "Hg1 mi
11:30 AM88 °FScattered clouds.3 mph70%29.68 "Hg2 mi
10:30 AM86 °FScattered clouds.5 mph75%29.71 "Hg2 mi
10:00 AM84 °FScattered clouds.3 mph79%29.71 "Hg2 mi
9:40 AM84 °FScattered clouds.5 mph79%29.71 "Hg2 mi
9:00 AM82 °FScattered clouds.3 mph84%29.71 "Hg1 mi
8:00 AM81 °FFog.3 mph94%29.68 "Hg1 mi
7:00 AM79 °FFog.3 mph94%29.68 "Hg1 mi
Weather by CustomWeather, © 2016

See weather overviewHow to use our weather pages